Regional Weather Roundup
Issued by NWS Midland/Odessa, TX

Skip options and go directly to product.
Home | Oldest Version | Next Version | Current Version | All | Text Only | Save Text | Print | Product List | Glossary On

Skip product version selection by date and time.   
119
ASUS44 KMAF 230101
RWRMAF
MIDLAND AREA WEATHER ROUNDUP
NATIONAL WEATHER SERVICE MIDLAND TX
800 PM CDT MON AUG 22 2016

...IN SOUTHWEST TEXAS AND SOUTHEAST NEW MEXICO...

CITY           SKY/WX    TMP DP  RH WIND       PRES   REMARKS
ALPINE         CLOUDY    73  63  72 SW6       30.17R
ANDREWS        FAIR      78  63  58 S12       30.06R
ARTESIA        CLEAR     81  63  54 S13       30.03S
BIG SPRING     CLOUDY    73  69  89 SE12      30.08R
CARLSBAD       CLEAR     83  62  49 S9        30.00S
DRYDEN           N/A     77  71  82 S3        30.01S
FORT STOCKTON  CLEAR     80  66  62 SE13G24   30.03R
GUAD PASS      CLEAR     72  60  66 E12       30.18R
HOBBS          PTCLDY    82  57  42 SE15      30.06R
MARFA          RAIN     N/A N/A N/A SE12      30.16R
MIDLAND AIRPK  CLEAR     81  65  58 SE10      30.05R
MIDLAND INTL   PTCLDY    80  67  64 SE14      30.04R
ODESSA         CLEAR     79  67  66 SE10      30.05S
PECOS          PTCLDY    85  64  49 E9        29.99R
PRESIDIO       FAIR      82  64  53 S10       30.02R
SEMINOLE       CLOUDY    80  62  53 S16G22    30.06R
SNYDER           N/A     76  68  76 SE9       30.05S
WINK           CLOUDY    83  64  52 SE16      30.00R
$$
...OTHER STATIONS IN TEXAS...

CITY           SKY/WX    TMP DP  RH WIND       PRES   REMARKS
ABILENE        LGT RAIN  73  72  96 E5        30.05R
AMARILLO       CLEAR     79  61  53 S21G30    30.02S
AUSTIN         PTCLDY    85  71  63 S8        30.03R
BROWNSVILLE    PTCLDY    86  77  74 SE16      30.02R
CORPUS CHRISTI MOCLDY    85  76  74 SE16      30.01R
DALLAS FTW     CLOUDY    80  76  87 E7        30.04R
DEL RIO        PTCLDY    85  69  58 SE8       29.97R
EL PASO        MOCLDY    86  59  39 S6        29.99F
HOUSTON INT    MOCLDY    80  76  87 E6        30.07R
LUBBOCK        MOCLDY    79  65  62 S20       30.05R
SAN ANGELO     CLOUDY    82  69  64 S5        30.03R
SAN ANTONIO    PTCLDY    86  70  58 SE15      30.03R
WACO           CLEAR     84  74  71 S13       30.04R
WICHITA FALLS  NOT AVBL
$$
...OTHER LOCATIONS IN NEW MEXICO...

CITY           SKY/WX    TMP DP  RH WIND       PRES   REMARKS
ALAMAGORDO     CLOUDY    82  54  36 SE5       30.03S
ALBUQUERQUE    TSTM      66  58  75 N5        30.15R
CANNON AFB     CLOUDY    78  60  52 SE13      30.04S
CLOVIS         CLOUDY    70  63  78 E8        30.04F
HOLLOMAN AFB   CLEAR     86  54  32 W8        30.00S
ROSWELL        CLOUDY    79  64  60 SW9       30.01F
RUIDOSO          N/A     64  57  77 SE10      30.25R
SANTA FE       CLOUDY    69  49  48 NW13      30.18R
TRUTH OR CONSE CLEAR     75  56  51 SE5       30.07S
TUCUMCARI      CLEAR     82  56  40 SW15      29.98S
$$

USA.gov is the U.S. government's official web portal to all federal, state and local government web resources and services.